Wind_Speed
17 17 17 17 16 15 15 15 16 15 16 17 17 16 14 14 14 15 16 17 18 17 18 19 19 19 20 21 21 20 20 18 22 28 32 33 31 28 28 30 32 34 35 34 33 32 31 30 29 28 27 26 25 24 23 22 22 22 21 20 19 18 17 16 15 14 13 13 12 12 11 11 11 11 11 10 10 10 9 9 9 8 7 7 7
16 17 18 17 16 15 15 15 15 15 15 16 15 15 15 15 14 14 15 17 18 17 18 18 19 19 20 21 21 21 21 19 21 27 32 35 33 29 28 29 31 32 34 35 34 34 33 32 31 29 28 27 26 26 25 24 24 24 23 22 21 20 19 18 17 16 15 15 14 14 14 13 13 12 12 12 12 11 11 10 10 9 8 8 7
16 17 16 15 15 16 16 15 14 13 14 15 14 15 16 16 15 15 15 16 17 17 17 17 18 19 20 21 22 22 22 20 20 24 31 36 35 32 30 30 30 31 33 35 35 35 34 34 33 31 30 29 27 26 26 26 26 26 25 25 24 23 21 20 19 18 17 17 17 16 16 15 15 14 14 14 13 13 12 12 11 11 10 9 9
17 17 16 15 15 15 15 14 13 13 13 13 14 15 16 16 17 16 15 15 16 17 16 16 18 19 21 21 22 23 22 21 20 22 28 35 37 35 33 32 31 30 31 33 35 35 35 35 34 33 32 30 29 28 28 28 28 28 27 26 26 25 23 22 22 22 21 20 19 19 18 17 17 16 16 15 15 15 15 14 13 13 12 11 11
17 17 17 15 14 14 13 13 12 12 13 13 13 14 15 17 18 17 15 15 15 16 16 16 18 20 22 22 21 22 22 22 21 21 26 33 38 39 37 35 32 30 31 31 33 35 36 36 36 35 33 33 32 32 31 31 30 29 29 28 28 27 26 25 25 24 23 22 22 21 20 20 19 18 17 17 17 17 17 16 15 14 14 13 12
17 17 16 14 14 14 13 12 11 11 13 13 13 13 15 17 18 17 15 16 16 16 16 17 17 16 17 17 18 20 22 22 21 19 23 30 37 40 39 37 34 31 30 31 32 34 35 36 37 36 35 34 35 34 34 33 32 31 31 31 30 29 28 27 26 26 25 24 23 22 22 22 21 20 20 19 19 19 18 18 17 16 16 15 14
16 16 14 13 13 13 12 11 11 11 12 12 12 14 15 17 18 16 16 17 16 16 17 17 16 13 13 14 14 16 19 21 21 18 20 26 34 40 41 38 35 32 31 31 31 33 34 36 37 37 37 36 36 36 35 35 34 33 33 32 32 31 30 29 27 26 25 24 24 24 24 24 23 23 22 21 21 20 20 19 19 18 18 17 16
14 13 13 13 12 12 11 10 10 10 11 10 10 12 14 16 17 16 16 17 17 17 18 17 15 13 14 14 14 14 15 17 20 20 19 22 30 38 40 39 37 34 31 30 30 31 33 35 36 37 37 37 37 37 36 35 35 35 35 34 33 32 31 29 28 27 27 26 25 26 26 26 25 25 24 23 23 22 22 21 20 19 19 19 18
13 13 13 13 11 11 10 10 10 10 11 10 10 11 13 15 16 16 16 16 17 17 17 17 16 15 15 15 15 15 14 15 17 20 21 23 27 34 39 40 39 36 32 30 30 30 31 33 35 36 37 37 38 38 38 37 37 37 36 35 34 33 32 31 30 29 29 28 27 28 27 27 27 26 26 25 24 24 24 23 22 21 21 20 20
15 13 13 13 12 12 11 11 11 11 11 10 11 11 13 14 15 15 15 15 16 16 16 16 16 16 16 17 16 15 15 15 16 17 20 23 25 30 37 40 39 37 34 31 29 29 29 30 32 35 36 37 38 38 39 38 38 37 37 36 34 33 32 32 31 31 30 30 29 29 29 28 28 27 27 26 26 25 25 24 23 22 22 21 21
17 15 14 14 14 13 12 12 12 12 11 11 11 11 12 14 15 15 15 14 15 16 15 15 15 17 18 17 17 17 16 15 15 16 17 20 23 26 32 38 40 40 36 33 31 29 29 29 30 32 34 35 36 37 38 38 38 37 37 36 35 34 34 33 33 32 31 31 30 30 29 29 29 29 28 27 27 26 26 26 25 24 23 22 22
18 17 16 15 15 15 14 13 13 12 11 11 11 12 12 14 15 15 15 14 15 15 15 14 15 17 18 18 18 16 15 13 14 16 17 18 20 24 28 34 40 42 38 36 33 31 29 29 28 30 31 32 33 34 36 37 38 38 38 37 36 36 35 34 33 32 32 31 30 30 30 30 30 29 29 28 28 27 27 27 26 25 24 23 23
18 18 18 17 17 17 16 15 14 13 12 12 12 13 14 15 15 15 14 14 16 16 15 14 14 16 17 18 18 15 14 14 15 17 18 19 19 21 25 29 36 41 41 38 36 33 32 31 30 30 30 30 31 32 34 36 38 38 38 37 36 36 35 34 33 32 31 31 30 31 31 31 30 30 30 29 29 28 28 28 28 27 25 24 24
19 19 19 19 19 19 18 16 15 14 13 13 13 13 15 16 15 14 14 14 16 17 16 16 15 15 15 16 16 15 15 16 17 17 18 18 18 17 19 23 30 38 41 41 39 36 34 34 33 32 31 31 30 31 33 34 36 36 36 36 36 35 33 33 32 32 31 31 30 31 31 31 31 30 30 30 29 29 28 28 28 28 27 26 25
18 19 19 19 19 19 18 17 16 15 15 14 14 14 15 17 16 15 15 15 16 17 17 17 15 14 14 15 15 16 17 18 19 18 18 18 18 17 17 18 23 31 38 42 42 40 37 37 36 34 33 33 32 31 31 32 34 35 35 35 35 34 33 33 32 32 31 30 30 30 31 30 30 30 30 30 29 29 28 28 28 28 28 27 26
18 18 18 18 19 18 18 18 17 16 16 15 15 15 15 17 17 17 17 17 16 17 17 16 16 16 16 16 16 17 17 18 19 18 18 18 19 20 18 16 17 22 32 41 44 43 41 39 38 37 36 35 34 32 31 32 33 33 34 34 33 33 33 33 32 31 30 29 29 29 29 29 28 28 28 29 28 28 28 28 28 29 29 29 28
18 18 18 18 18 18 18 18 17 17 16 16 16 16 16 17 18 19 18 18 17 17 17 16 16 16 16 16 17 17 16 17 18 19 18 19 19 19 19 16 14 16 24 34 41 44 44 43 41 39 39 38 36 34 33 34 34 33 32 32 32 32 32 31 30 29 29 28 28 27 27 27 27 27 27 28 27 27 27 27 28 28 29 29 29
18 18 18 18 18 18 18 18 18 17 17 17 18 18 18 18 19 19 19 19 19 18 18 17 16 16 16 17 17 16 16 17 18 18 17 18 17 17 17 17 15 14 17 26 35 41 43 43 43 43 42 41 39 38 37 37 36 35 33 32 32 32 31 30 30 30 29 28 27 27 26 26 26 27 27 27 27 27 27 27 27 28 29 29 30
18 18 18 18 18 18 18 18 18 18 18 19 19 19 19 19 19 19 20 20 20 20 19 19 17 17 18 18 17 17 17 18 17 16 17 18 17 17 17 17 16 16 14 16 24 33 39 41 41 42 43 43 42 41 40 39 39 38 36 35 34 33 32 32 32 32 31 29 28 28 27 27 27 27 27 27 27 27 27 27 27 27 28 29 29
18 17 17 17 17 18 18 19 19 19 19 19 19 19 20 20 20 20 20 21 21 21 20 20 19 18 18 18 18 18 19 19 18 18 19 20 19 19 19 18 19 19 17 15 15 20 29 36 38 38 40 42 43 43 43 43 42 40 38 38 37 37 36 35 34 34 33 32 31 30 29 29 29 29 29 28 27 27 27 27 27 27 28 29 29
17 17 17 17 17 18 18 19 19 19 19 19 19 20 20 21 21 20 21 21 21 22 21 21 20 20 19 19 19 20 21 20 20 21 22 21 21 21 20 19 19 18 18 19 18 16 17 25 32 35 36 38 40 41 44 44 43 42 42 42 41 41 40 39 38 37 36 36 35 33 33 32 32 32 31 30 29 29 29 28 28 28 29 29 29
18 17 17 17 17 18 18 18 19 19 19 19 19 19 20 21 21 20 20 20 20 21 21 21 20 20 20 20 20 21 21 22 22 23 23 24 23 23 22 21 20 20 20 22 22 19 17 17 23 29 33 36 38 40 42 41 41 43 44 45 45 44 44 44 43 40 39 39 39 39 37 37 36 35 34 33 32 31 31 30 30 30 30 30 30
18 17 17 17 17 17 18 18 18 18 18 19 19 19 19 19 20 20 19 19 19 19 18 18 19 20 20 20 21 21 22 22 23 24 24 25 26 25 24 24 25 26 26 25 24 22 20 18 18 22 28 31 34 37 40 40 39 41 44 46 46 45 46 47 45 45 43 39 38 40 42 42 41 38 37 37 35 34 34 33 33 33 32 32 32
16 16 16 16 16 17 17 17 17 18 18 18 18 18 18 18 18 18 18 18 18 17 17 16 16 17 19 20 21 21 22 22 23 24 24 25 26 26 26 26 27 28 27 27 26 24 21 19 18 20 23 27 29 31 34 34 33 34 36 40 41 42 43 43 41 44 44 37 32 34 39 43 44 42 41 40 40 38 37 37 36 36 35 35 34
15 15 15 15 15 16 16 16 16 17 17 16 16 16 16 16 16 16 16 16 16 15 15 15 14 15 16 18 19 21 21 22 23 23 23 24 25 26 25 25 26 27 26 25 25 24 21 19 18 18 20 22 24 26 28 29 28 27 29 31 33 36 38 36 33 36 41 41 39 37 38 40 42 44 45 44 44 43 42 42 40 39 39 38 37
15 15 15 15 15 15 15 15 15 15 15 15 15 15 15 14 14 14 14 14 14 13 13 13 13 14 15 16 17 19 20 21 22 22 22 22 23 24 24 23 24 24 24 23 23 24 21 19 19 19 19 19 20 21 24 25 26 26 28 30 32 34 35 34 32 32 36 40 43 43 42 40 40 44 46 47 47 47 46 46 46 44 42 41 41
15 15 16 16 15 15 15 15 15 15 15 15 15 15 14 14 14 13 13 12 12 12 11 11 12 13 14 14 15 16 17 18 20 20 20 20 21 21 21 21 22 22 22 21 22 23 22 19 19 19 20 19 19 19 21 23 26 29 31 33 34 36 37 37 35 34 35 36 39 42 43 41 40 42 44 46 48 48 47 47 47 47 45 44 44
15 15 15 16 16 16 16 15 15 15 15 15 15 15 15 14 14 13 12 12 11 11 10 10 11 11 12 13 14 14 15 15 17 18 18 17 18 18 19 19 20 20 20 19 20 22 22 20 19 19 19 20 19 20 21 22 24 27 30 32 34 34 35 34 33 33 34 34 35 39 41 42 42 42 42 42 44 44 44 43 44 45 46 46 46
16 16 15 15 15 15 16 16 16 16 16 16 15 15 15 15 15 14 13 13 12 11 11 10 10 11 12 13 13 14 14 14 14 15 15 15 14 14 15 16 17 18 18 17 17 19 20 20 19 18 18 19 19 20 21 21 21 22 25 27 28 29 28 26 26 26 27 28 29 32 35 39 41 42 42 42 42 42 41 40 40 41 43 45 47
17 17 16 15 14 15 15 16 17 17 17 17 17 16 16 16 16 15 14 14 13 12 12 11 11 11 12 12 13 14 14 14 14 14 14 13 12 12 12 12 14 15 15 15 14 16 18 19 19 17 17 17 18 20 21 21 21 20 21 22 23 23 22 21 21 21 22 23 23 24 27 29 32 34 36 37 38 38 38 37 36 36 37 39 42
18 17 17 16 15 15 15 16 17 18 18 18 18 18 17 17 17 16 15 14 14 13 12 12 12 12 12 12 13 13 14 14 14 14 14 14 13 12 11 11 12 13 14 13 13 14 16 17 17 17 16 16 17 19 19 19 20 20 20 20 20 20 19 18 18 19 20 20 21 21 22 23 24 25 27 29 31 32 33 34 34 34 34 34 35
20 19 18 17 16 15 15 15 16 17 18 18 18 18 18 18 17 17 17 16 15 14 13 12 12 12 12 12 12 13 13 14 15 15 15 15 14 14 13 12 12 13 14 15 14 14 15 16 17 16 16 15 16 17 18 18 19 20 20 20 20 20 19 18 18 19 19 20 20 20 20 20 21 22 23 25 26 28 30 32 33 34 33 32 31
24 23 21 19 17 16 16 15 15 16 17 17 18 17 17 17 16 16 16 16 15 15 14 14 13 13 12 13 13 13 13 14 14 15 15 16 16 16 16 15 15 15 15 16 17 17 16 17 17 18 17 17 17 18 18 19 18 19 20 21 21 21 21 20 20 21 21 21 21 21 21 21 21 22 23 23 24 25 26 28 29 29 29 28 28
26 26 25 23 20 18 17 17 17 17 17 18 18 18 17 16 15 15 14 14 14 14 13 13 13 13 13 13 14 14 14 15 15 16 16 17 17 17 17 18 18 17 18 18 19 19 19 19 20 20 20 20 20 20 20 21 20 20 21 22 23 23 23 22 23 23 23 23 23 23 23 23 23 23 23 23 24 24 24 25 25 25 25 26 26
26 26 27 26 25 23 22 20 19 18 18 18 19 19 19 18 17 16 15 14 14 14 13 13 13 12 12 13 13 14 15 15 16 17 18 18 19 19 19 19 19 20 20 20 21 21 22 22 22 22 23 23 22 23 23 23 23 23 22 23 24 24 25 24 25 25 25 25 25 25 25 25 26 26 26 26 25 25 26 26 26 26 26 27 27
28 27 27 28 28 28 26 23 22 21 21 20 20 20 21 20 20 19 18 17 17 16 15 15 14 14 13 13 13 14 14 14 15 16 17 18 19 20 20 21 21 21 22 22 22 23 24 24 25 25 25 26 26 26 26 26 26 26 26 25 26 26 26 26 26 27 27 27 27 27 27 27 27 28 28 28 28 28 27 27 28 28 28 29 29
29 28 29 29 29 28 27 26 25 25 24 23 22 22 22 21 21 20 19 19 18 18 17 16 16 15 15 15 15 15 15 16 16 16 17 18 19 20 21 21 22 22 22 22 23 23 24 25 26 26 26 27 28 29 29 29 29 29 29 29 29 28 28 28 29 29 29 29 29 29 29 29 29 29 30 30 30 30 29 29 29 30 30 31 31
33 31 29 30 30 29 30 30 29 28 27 26 25 24 23 23 22 22 22 21 21 20 19 18 18 17 17 17 17 17 18 18 19 19 20 20 21 21 22 22 23 23 23 23 23 23 23 24 25 26 27 27 28 29 30 30 31 32 32 31 31 31 31 31 31 31 31 31 31 31 31 31 31 31 31 32 32 32 32 31 31 31 32 32 32
34 32 31 31 31 30 30 32 32 32 30 29 28 27 27 27 27 26 25 25 24 24 22 22 21 21 21 21 20 20 21 21 21 22 22 23 24 24 24 24 24 25 25 24 24 24 25 25 25 26 27 29 29 30 30 30 31 31 32 32 32 32 33 33 33 33 33 33 33 33 33 32 32 32 32 33 33 34 34 34 33 33 33 33 34
31 31 32 33 33 32 32 34 34 34 33 31 31 31 30 30 30 29 29 29 28 27 26 26 25 26 26 25 24 25 25 25 25 25 26 27 28 29 29 29 29 28 28 28 28 28 28 27 27 27 28 29 31 32 32 33 33 33 33 32 32 33 34 34 34 34 35 35 35 35 35 34 34 34 34 34 35 36 36 36 35 35 35 35 34
33 33 34 34 35 36 37 36 36 35 35 34 34 35 34 33 31 30 31 32 32 31 30 30 29 30 30 29 29 29 29 30 29 29 29 30 32 33 34 34 34 34 34 33 33 32 32 31 31 31 31 32 33 33 34 35 36 35 35 35 35 35 35 35 35 36 36 36 36 36 37 37 36 36 36 36 37 38 38 38 37 37 36 36 35
38 38 38 38 39 39 37 37 37 38 37 36 36 37 37 36 35 33 31 31 31 32 32 32 32 33 34 34 33 33 33 33 32 31 31 32 33 34 35 36 36 36 36 37 36 36 36 36 36 36 36 36 36 37 37 38 38 38 37 38 38 38 38 37 38 39 39 38 38 38 38 39 39 39 39 38 38 39 39 39 38 38 38 37 35
41 41 42 42 43 43 39 37 37 39 40 38 36 37 37 36 36 35 33 31 31 31 32 33 35 36 37 38 37 37 37 37 36 35 35 35 36 36 37 38 39 39 39 39 40 40 40 40 41 41 41 41 40 40 40 40 41 41 41 41 40 40 40 40 40 41 42 42 41 40 40 40 41 41 41 41 41 40 40 39 39 39 39 38 37
45 45 46 46 46 47 45 42 40 40 41 41 39 38 38 39 38 39 39 40 40 38 37 38 39 40 41 40 40 40 40 39 39 39 39 39 40 40 41 41 42 42 43 43 43 43 43 43 43 44 45 45 45 44 44 43 43 43 44 45 44 44 43 42 42 43 45 46 45 43 42 43 44 43 42 43 44 43 42 41 41 41 40 40 40
49 48 48 48 49 49 49 47 46 44 44 45 44 42 42 43 44 44 45 47 48 45 42 41 41 41 41 41 42 42 41 41 40 40 41 42 43 43 43 44 44 45 45 46 47 48 48 48 48 48 49 49 48 48 48 47 46 46 46 46 47 48 47 46 45 45 46 48 48 47 44 45 46 45 44 45 46 45 45 44 43 43 43 43 43
51 49 47 47 48 49 50 49 49 49 49 50 50 49 47 47 47 47 47 48 49 48 46 45 44 43 42 42 43 43 43 43 44 44 45 46 47 47 47 48 48 49 50 51 52 52 53 53 53 52 52 52 52 51 51 50 49 49 48 48 48 49 49 50 49 49 48 49 50 50 47 47 49 48 46 47 48 47 47 46 46 46 46 46 46
51 50 48 48 47 48 49 50 50 51 52 52 53 53 52 51 51 51 52 52 52 52 52 52 51 49 47 47 47 47 47 48 48 49 50 51 51 52 52 53 53 54 54 55 56 56 56 56 56 55 55 54 54 53 53 52 52 51 50 49 49 49 50 51 51 52 52 52 52 52 49 49 51 51 49 50 50 50 49 49 49 49 50 50 49
50 50 50 49 49 48 48 48 50 51 52 53 53 53 53 53 53 54 54 55 55 56 56 56 56 54 53 52 52 52 52 53 52 53 53 53 54 55 55 56 56 56 56 56 57 57 57 57 57 56 55 55 54 54 54 54 53 53 52 51 51 51 51 51 51 52 53 54 55 54 52 51 52 53 52 53 52 52 52 52 53 53 53 53 53
49 50 50 50 50 49 49 47 47 49 50 51 52 52 52 52 53 53 53 53 54 54 55 56 56 56 55 54 53 53 53 54 54 54 54 55 56 56 56 57 57 56 55 56 56 56 56 56 56 55 55 55 54 54 54 54 54 53 53 52 52 53 52 51 51 52 54 54 55 56 56 54 55 55 55 55 55 54 54 54 56 57 57 57 57
49 50 50 50 50 49 49 48 47 48 49 49 49 49 49 50 50 50 50 50 50 51 52 53 54 55 55 53 52 52 52 52 52 53 53 54 54 55 55 55 55 54 54 54 54 54 54 54 54 54 54 55 54 54 54 53 53 53 53 52 53 53 53 52 52 53 54 55 56 58 57 56 57 58 57 56 56 56 57 58 58 58 59 60 61
50 50 50 50 50 49 49 48 48 49 49 49 49 49 49 48 48 48 48 48 48 49 49 50 50 51 52 52 51 51 51 51 51 51 52 52 53 53 54 54 53 53 53 54 53 53 53 53 53 53 54 54 54 54 54 54 54 55 55 55 55 55 55 54 54 54 54 55 58 59 59 58 58 59 58 58 56 55 56 59 60 60 60 61 61
Wind_Direction
256 253 247 240 239 241 245 248 248 247 248 251 253 253 254 256 257 255 253 246 240 237 240 243 245 245 244 244 246 249 251 251 242 232 224 225 227 225 227 230 231 231 230 229 227 227 226 226 227 227 226 225 224 225 226 226 226 227 229 230 230 230 230 230 231 232 234 236 239 242 246 251 257 261 265 269 273 278 285 290 297 303 310 316 320
257 253 247 240 238 238 242 247 248 248 248 250 251 250 249 248 248 248 249 246 241 237 235 241 245 244 243 244 245 245 246 245 239 231 225 225 228 226 225 228 231 232 232 231 229 228 228 227 228 228 228 227 227 226 228 229 230 231 232 233 233 233 233 234 235 236 238 240 242 243 245 248 252 257 260 264 266 270 275 280 284 289 294 299 305
257 253 247 241 240 240 241 244 247 250 252 252 253 252 250 247 247 247 245 245 244 243 240 242 245 246 245 244 243 243 243 244 239 232 226 224 227 226 225 227 229 231 232 232 232 231 230 230 229 229 230 230 230 229 230 232 234 235 236 236 237 237 238 238 239 240 241 242 245 246 247 248 250 254 257 260 263 265 268 272 276 279 284 288 291
256 250 245 242 243 244 246 246 247 252 257 257 255 254 253 252 250 247 245 245 245 247 246 244 247 248 246 244 242 240 239 241 240 235 229 226 227 227 225 227 228 228 231 233 234 233 232 232 231 230 231 231 231 231 231 233 236 238 240 241 242 244 244 243 243 243 243 243 245 248 249 250 251 252 255 259 262 264 265 267 270 273 277 281 285
258 252 245 245 248 252 253 251 250 253 256 257 255 254 254 254 252 249 247 249 246 246 247 245 250 252 249 249 248 244 238 239 240 237 233 228 226 226 225 226 226 226 229 233 234 234 233 234 233 231 231 231 231 231 232 234 237 240 243 245 246 247 247 246 245 245 245 244 245 247 249 251 252 252 253 256 259 262 264 265 267 269 273 276 280
263 258 250 248 255 257 255 254 257 261 262 260 257 255 252 253 255 255 254 255 250 247 249 247 252 259 258 258 260 253 244 240 241 241 237 232 226 225 226 226 226 226 229 232 233 235 235 235 234 233 232 232 232 233 234 235 237 240 242 245 246 247 248 247 247 247 247 247 247 248 249 251 252 252 252 253 255 258 261 263 265 267 270 272 275
267 262 256 255 260 262 259 259 263 270 271 267 264 259 252 251 254 257 257 257 254 250 251 252 254 262 267 269 269 262 249 241 242 244 241 235 228 225 226 227 227 228 230 232 234 236 236 236 236 235 234 234 233 234 235 235 237 239 241 243 245 246 246 247 248 249 249 250 250 250 250 250 251 252 253 253 254 256 259 261 263 265 268 270 272
271 266 262 261 261 263 265 266 269 275 278 277 273 265 256 252 255 257 258 260 259 254 254 259 261 262 266 268 267 263 257 247 244 247 246 238 230 226 225 227 228 229 231 233 235 236 236 237 237 236 236 236 236 236 236 236 237 238 240 241 243 244 245 247 248 250 251 252 252 252 252 252 252 252 253 254 254 256 258 260 261 262 265 269 271
277 273 270 269 266 268 277 284 284 281 281 284 284 278 266 258 258 259 260 262 263 261 262 266 267 266 265 263 262 261 260 254 247 249 251 245 234 227 225 227 229 230 232 234 236 237 236 237 238 237 237 236 236 237 237 236 236 238 239 241 242 243 245 246 248 249 252 253 254 254 254 254 254 253 253 254 254 255 257 258 260 261 263 266 269
287 284 280 280 280 283 292 296 294 288 285 289 292 286 274 264 261 261 262 264 266 268 270 270 269 270 268 263 261 259 255 254 249 248 251 251 243 232 225 225 229 231 231 233 235 237 238 237 237 237 237 237 237 238 238 238 238 239 240 241 242 243 245 247 248 249 252 254 255 255 255 255 256 256 255 254 254 255 256 257 259 259 261 263 267
289 286 280 279 281 285 291 290 288 289 288 290 292 287 277 270 267 266 266 267 270 273 274 274 272 271 269 264 261 256 252 252 251 249 251 252 250 241 230 224 227 232 231 231 234 237 239 239 238 238 238 239 239 240 241 241 240 240 241 242 243 245 246 247 248 249 252 254 255 256 256 256 256 257 256 255 254 253 254 256 257 258 259 260 263
284 281 276 273 273 275 278 278 280 285 286 285 286 283 278 275 272 269 268 270 273 274 274 277 276 271 266 263 263 260 254 253 255 257 259 257 255 250 239 227 226 229 231 232 233 236 240 241 242 243 242 242 242 242 242 243 243 242 242 243 245 246 247 248 249 249 251 252 255 256 257 257 257 257 256 256 255 253 253 254 255 256 257 257 259
280 278 276 272 272 272 273 276 280 282 284 283 281 279 279 276 271 268 268 272 275 275 273 276 280 277 267 262 266 266 261 261 262 265 269 271 267 261 252 237 228 226 227 231 233 235 239 240 241 243 243 243 243 244 244 244 245 245 245 245 246 248 248 248 249 249 250 251 253 255 257 258 258 258 258 257 256 254 253 253 254 254 255 255 256
282 280 278 275 276 277 277 279 282 283 284 283 280 279 280 277 273 272 275 276 277 276 275 276 281 280 271 266 270 272 268 265 266 268 273 276 277 275 269 254 238 228 225 227 231 234 237 239 239 238 239 240 241 243 245 246 247 247 248 248 248 249 249 249 249 250 251 252 254 256 257 258 260 261 261 260 258 256 254 253 252 253 254 254 254
286 283 281 281 281 282 282 282 283 284 284 282 280 279 281 281 281 282 281 280 279 278 278 277 278 276 272 272 275 275 270 267 267 267 267 270 274 278 280 273 256 239 228 226 228 230 233 238 240 239 238 238 239 240 243 246 248 249 249 249 249 249 248 249 250 251 252 253 255 257 258 259 261 262 263 262 260 258 256 253 252 252 253 253 254
288 286 284 283 284 284 285 283 282 283 282 281 279 276 276 277 279 280 278 278 277 277 278 276 273 272 271 272 273 271 267 263 263 264 265 268 271 273 275 277 271 254 236 229 229 230 230 234 238 240 240 240 239 239 241 244 246 247 248 249 250 249 249 248 249 250 251 252 253 255 258 260 262 263 263 262 261 259 257 255 253 252 252 253 254
288 286 285 284 284 284 283 283 282 281 278 276 273 271 269 269 271 274 275 277 276 276 276 273 271 270 269 267 267 265 261 259 261 265 267 270 273 273 270 267 271 267 248 236 233 232 232 233 235 237 239 240 241 240 240 243 245 245 246 248 249 249 249 249 249 249 249 249 250 252 255 258 260 261 261 261 260 259 257 256 255 253 253 253 254
283 282 282 281 280 280 278 278 277 274 271 269 268 268 267 267 268 271 273 274 274 274 274 273 270 266 265 265 263 261 260 262 266 267 265 267 273 273 266 261 262 265 258 247 240 237 236 236 235 236 238 239 240 241 242 243 246 247 247 247 248 249 249 250 250 249 248 247 247 249 251 253 256 258 259 259 259 259 258 258 257 256 256 255 256
279 279 279 278 277 276 275 273 271 269 268 267 266 267 267 266 267 267 268 270 272 272 271 271 268 263 264 265 263 261 262 265 267 266 263 264 270 270 266 262 257 258 263 259 250 244 241 240 237 236 237 238 238 240 243 244 246 247 248 249 250 250 249 250 251 251 250 248 247 247 248 250 253 255 257 258 258 259 259 259 258 259 259 258 258
278 279 279 279 278 277 276 274 272 270 269 267 267 267 267 267 266 265 265 266 268 269 269 269 268 264 263 262 260 259 259 260 260 261 262 264 266 266 265 264 259 259 265 269 271 261 249 245 243 239 237 239 239 239 241 243 245 247 249 251 253 253 252 250 250 252 253 252 251 250 250 251 252 253 255 256 257 258 258 259 259 259 260 260 261
277 278 279 280 280 279 277 275 274 274 271 269 268 268 267 267 267 265 264 264 265 266 267 267 266 263 261 260 259 259 258 258 258 259 261 261 261 262 264 264 260 261 266 269 275 278 262 250 248 245 242 241 241 241 242 243 244 247 249 251 251 252 253 252 250 250 252 253 253 253 253 253 253 253 254 255 257 258 258 259 259 259 259 260 262
276 277 277 277 277 277 277 275 274 273 271 270 269 267 267 267 267 266 265 264 264 264 265 265 264 263 260 258 258 258 258 258 259 259 260 261 260 261 263 261 258 261 268 270 271 274 272 262 252 248 246 245 244 243 244 245 245 247 249 250 250 250 250 251 250 248 249 252 254 254 254 254 254 255 255 255 256 258 259 260 260 260 261 261 262
277 278 277 276 275 275 275 274 273 272 271 269 268 268 267 266 267 267 266 265 264 264 265 265 265 264 263 259 256 256 256 257 259 259 259 261 261 261 261 260 261 266 271 273 273 272 272 269 261 251 246 245 246 245 245 248 249 249 249 249 250 249 248 250 249 247 247 250 252 254 255 253 253 254 255 256 256 257 258 259 259 260 261 262 263
281 281 281 279 277 276 274 273 273 272 271 270 270 269 268 268 267 267 267 267 266 266 266 266 266 265 264 262 260 258 256 256 257 257 258 259 261 261 260 260 263 267 271 272 272 271 269 268 265 256 247 243 244 245 246 248 251 252 251 249 247 246 246 249 248 245 243 242 241 245 249 251 250 251 254 255 256 256 257 258 258 259 260 260 262
287 286 285 283 280 277 275 273 273 272 272 271 271 271 270 270 269 269 269 269 269 270 270 267 265 264 263 262 261 260 259 258 257 257 257 258 260 261 262 262 263 265 268 270 269 269 267 264 261 257 251 247 243 242 243 247 250 251 250 245 242 241 241 243 244 242 240 237 237 240 245 250 251 252 253 255 256 256 258 259 259 260 260 260 261
289 288 287 285 282 280 277 275 274 273 273 273 273 273 272 271 270 270 270 270 272 273 273 271 267 264 262 262 262 261 261 260 259 259 258 258 260 262 263 263 264 265 266 267 267 266 264 261 256 251 248 247 246 245 243 244 245 244 242 238 236 237 237 239 243 244 241 239 240 243 247 252 254 254 255 256 256 257 258 259 259 261 262 261 261
289 287 286 284 283 282 279 277 276 274 274 274 275 275 275 274 273 272 271 270 272 273 272 271 268 266 265 264 265 264 263 263 264 264 262 261 260 261 263 263 264 266 266 266 265 266 266 260 253 249 246 244 244 246 246 244 241 238 237 235 234 235 238 242 244 245 246 246 245 245 247 251 254 256 257 258 257 256 256 257 258 259 261 261 262
285 283 284 284 284 284 281 279 277 274 274 273 274 275 276 276 275 273 272 269 268 268 266 265 263 262 262 262 264 266 266 265 266 268 269 267 265 264 264 263 264 266 267 265 264 266 267 262 255 250 247 246 245 245 247 248 246 242 239 237 236 237 240 245 248 249 251 252 251 249 248 249 251 254 256 257 256 254 254 255 256 258 259 260 261
282 279 279 280 282 284 283 282 280 277 275 273 273 273 274 275 275 273 272 268 265 262 260 257 254 254 254 256 259 261 264 264 264 268 270 271 270 268 268 266 265 266 266 264 262 263 265 263 259 252 247 247 247 248 249 250 250 248 244 241 239 240 243 248 252 253 253 254 254 253 250 250 251 252 254 255 254 253 253 254 256 258 260 260 261
277 275 275 274 275 279 281 282 282 279 278 275 273 271 270 270 271 271 270 268 267 263 261 258 254 251 250 250 252 254 257 259 258 260 264 267 268 267 267 266 266 268 268 265 260 259 261 261 260 255 246 242 242 246 249 250 251 251 250 247 245 245 247 250 250 250 250 252 254 254 253 252 252 252 252 251 251 251 252 254 255 258 262 264 262
271 268 270 270 271 274 275 279 281 281 281 278 275 272 269 267 264 264 265 265 265 264 262 262 259 257 254 251 251 252 254 257 257 256 257 259 262 262 261 260 261 264 267 266 262 259 260 260 260 258 250 242 238 240 242 244 246 250 252 252 251 251 252 252 252 252 252 252 252 252 252 253 253 253 252 251 250 250 252 254 256 259 263 265 264
270 267 266 266 268 270 272 276 278 281 282 281 279 276 272 269 264 262 261 260 261 260 258 257 256 257 258 258 257 255 255 257 259 260 258 257 258 257 256 255 255 256 259 262 262 260 260 260 261 261 257 252 246 243 242 241 239 241 245 248 250 251 251 251 251 252 252 252 252 252 252 252 253 253 252 252 252 253 254 256 258 259 261 263 263
275 274 270 267 266 267 270 272 271 274 276 275 276 275 273 271 268 265 263 261 260 260 260 259 256 255 255 256 258 259 259 259 259 261 262 261 261 260 260 258 256 255 256 257 259 259 259 259 260 260 259 257 254 251 250 248 245 243 244 247 249 250 250 250 250 251 252 253 253 253 252 251 251 251 251 252 252 252 253 254 256 257 259 260 260
275 276 275 272 270 269 268 266 264 264 266 267 267 267 266 264 264 264 263 261 261 261 262 262 262 261 259 257 256 256 258 259 259 260 261 262 263 263 263 263 262 262 260 260 261 260 260 260 261 261 261 259 258 256 255 254 252 249 247 249 251 252 252 252 252 252 252 253 254 254 255 254 253 253 253 252 252 253 252 252 253 254 256 256 257
268 271 273 273 272 271 268 265 263 262 261 261 262 262 262 259 258 258 258 257 257 258 259 261 262 263 264 264 263 261 261 262 262 263 262 263 264 264 265 265 265 266 265 265 266 267 266 265 264 265 265 265 264 262 261 260 259 256 254 252 252 253 255 255 255 255 255 254 255 255 256 256 257 256 255 254 253 253 254 254 254 253 253 253 253
264 263 265 267 269 270 269 266 264 264 261 260 260 260 261 261 259 258 256 256 257 256 257 259 261 262 262 263 266 267 267 266 267 268 268 268 268 268 267 267 267 267 267 267 268 269 271 272 271 270 269 270 270 269 268 266 265 264 262 260 258 257 257 256 257 257 257 257 256 256 256 257 257 258 259 258 257 255 254 254 254 254 254 253 253
261 259 259 261 263 265 266 265 263 263 261 260 260 260 261 263 263 262 260 258 258 258 257 257 259 262 263 264 266 268 269 269 269 271 273 275 275 275 273 272 271 270 269 269 269 269 270 273 275 276 274 273 273 273 273 272 271 269 267 266 264 263 262 260 259 258 258 258 258 257 256 256 257 258 259 260 260 259 257 255 255 255 255 255 255
260 258 256 256 260 261 261 262 263 261 260 259 258 259 260 261 262 262 262 260 258 258 258 257 257 259 261 263 265 267 269 271 272 273 275 277 277 277 277 276 275 274 273 273 273 273 272 273 274 276 277 277 276 274 273 273 273 273 272 270 269 267 265 264 263 261 260 259 258 257 257 257 257 257 258 259 260 260 259 258 256 256 256 256 256
257 254 254 256 260 260 260 264 265 262 260 257 255 255 257 260 260 257 257 259 259 259 259 259 260 262 263 264 265 267 269 270 273 274 275 276 276 276 275 275 274 274 275 276 277 277 277 276 276 275 277 278 278 277 276 274 272 272 272 273 273 272 269 267 265 264 262 260 259 258 258 257 257 257 258 258 259 259 259 258 257 256 256 256 256
260 256 258 259 259 260 265 269 267 263 260 257 256 256 255 257 260 258 256 257 259 261 261 261 263 263 264 265 266 267 268 269 270 271 272 274 275 275 275 275 274 274 274 275 277 278 278 278 278 278 278 278 278 278 278 277 275 273 272 272 272 273 272 270 269 267 265 263 260 259 259 258 256 256 256 256 257 257 257 257 257 257 256 255 255
267 265 265 263 261 264 270 271 266 263 261 257 256 257 255 256 259 260 260 258 258 260 262 263 264 265 265 265 265 266 267 269 270 271 272 271 272 272 273 274 274 275 275 275 275 276 277 278 278 279 279 280 279 278 278 277 277 276 274 272 271 271 271 270 270 269 268 266 264 262 260 259 258 256 255 254 254 255 256 256 256 256 255 254 253
269 268 267 265 264 266 269 268 263 262 263 261 256 256 257 259 258 257 257 257 256 258 262 264 266 268 269 269 268 269 270 271 272 272 272 271 271 271 271 272 273 274 274 274 274 274 275 276 277 278 279 279 279 278 277 276 275 275 274 273 272 271 269 268 269 269 268 266 265 264 263 262 260 259 257 255 254 253 254 254 255 254 253 252 251
269 268 267 265 264 264 265 265 263 263 266 266 260 255 257 259 257 253 253 258 260 259 262 266 268 269 271 271 271 270 270 271 272 273 273 273 273 273 274 275 275 275 275 276 276 276 276 276 277 277 277 278 278 278 277 276 274 273 271 271 270 270 268 267 267 268 267 265 264 263 263 263 262 260 259 258 256 254 252 252 253 252 251 251 250
268 268 268 267 265 264 264 263 262 262 265 266 263 258 256 257 257 254 254 260 265 265 266 268 269 269 269 270 270 269 269 271 272 272 274 275 275 275 275 276 277 278 279 279 280 279 279 278 278 278 278 277 277 277 277 276 274 273 271 269 268 268 267 266 265 265 265 264 263 262 261 263 262 261 260 259 257 256 254 252 251 250 250 250 249
269 268 268 267 267 266 266 264 263 262 263 264 263 260 259 258 259 259 259 263 268 271 272 271 270 268 267 268 268 269 270 271 272 272 273 274 274 275 275 277 278 279 281 282 283 283 282 281 280 280 280 279 278 277 276 276 275 273 272 270 268 267 266 265 264 263 262 262 262 261 260 261 262 261 260 260 258 256 254 254 253 252 250 250 250
271 270 268 266 266 266 266 266 264 263 263 263 264 263 263 262 262 264 266 268 270 272 273 271 270 269 267 267 267 269 270 272 272 273 273 274 275 276 277 278 279 281 282 283 283 283 283 282 282 281 281 280 279 278 277 276 275 274 273 271 269 267 266 264 263 262 261 261 261 261 259 258 259 260 260 260 259 257 255 253 253 253 252 251 251
271 271 270 268 266 266 266 266 266 264 264 264 265 266 266 267 266 267 268 269 269 271 272 272 272 271 270 269 270 271 271 272 272 272 273 274 275 276 277 278 279 280 281 281 281 281 282 281 281 280 279 279 278 277 277 276 276 275 274 272 270 267 265 264 262 262 261 260 260 261 259 257 256 256 257 258 258 258 257 255 254 253 252 252 252
270 270 270 270 269 268 268 268 268 267 266 266 267 267 268 269 269 269 269 269 270 271 273 274 275 275 274 274 275 275 274 274 274 274 274 275 275 275 275 276 277 278 278 278 278 278 279 279 278 278 277 276 275 275 275 275 275 274 274 273 271 268 265 264 262 261 261 260 260 260 259 258 256 255 254 255 257 257 257 257 256 255 254 254 253
269 269 269 270 270 271 271 270 269 268 268 269 269 269 270 270 270 271 271 271 272 272 273 275 276 277 277 277 277 276 276 276 276 276 275 275 275 275 275 275 276 275 275 274 274 275 275 275 275 275 274 273 272 272 272 272 272 272 272 272 271 269 268 266 263 262 261 261 261 260 258 257 256 255 254 254 255 256 257 257 257 256 255 255 255
267 267 268 268 269 270 271 271 270 270 270 271 271 272 272 272 272 272 271 272 272 272 273 273 274 275 276 277 277 276 276 276 276 275 275 274 274 275 275 275 275 275 274 273 273 273 272 272 272 272 272 271 271 271 270 269 269 269 270 270 269 269 268 267 265 264 262 262 263 262 260 257 256 256 255 254 254 255 256 256 257 257 257 256 256
266 266 267 267 268 268 269 270 270 271 271 271 272 272 272 272 272 273 272 272 272 272 272 272 272 272 273 274 274 274 274 274 273 273 273 273 274 274 274 274 274 274 273 273 272 272 271 271 271 270 270 270 269 269 268 267 268 269 269 269 268 268 267 266 265 264 263 262 262 262 261 259 258 257 256 255 254 255 256 257 256 256 257 257 258
Height
5804 5805 5805 5805 5804 5806 5807 5807 5809 5810 5810 5811 5811 5811 5811 5812 5812 5812 5812 5813 5813 5813 5813 5814 5814 5815 5816 5817 5816 5816 5816 5818 5820 5824 5827 5828 5829 5830 5832 5833 5834 5835 5837 5839 5840 5841 5842 5843 5844 5845 5846 5848 5849 5849 5850 5851 5852 5852 5853 5854 5854 5855 5856 5857 5857 5858 5859 5859 5859 5860 5860 5860 5860 5861 5861 5861 5861 5861 5861 5861 5861 5861 5861 5860 5860
5802 5803 5803 5802 5802 5803 5804 5805 5807 5808 5809 5809 5809 5810 5810 5810 5810 5810 5810 5810 5811 5811 5811 5811 5812 5812 5813 5814 5814 5814 5814 5814 5817 5820 5822 5824 5826 5828 5829 5830 5831 5832 5834 5836 5838 5839 5840 5841 5842 5843 5844 5846 5847 5848 5849 5849 5850 5851 5851 5852 5853 5853 5854 5855 5856 5857 5857 5858 5858 5858 5859 5859 5859 5859 5860 5860 5860 5860 5860 5860 5860 5860 5860 5860 5859
5799 5800 5800 5800 5801 5802 5803 5804 5805 5806 5807 5807 5808 5808 5808 5808 5808 5808 5808 5809 5809 5809 5809 5809 5810 5810 5810 5811 5811 5811 5811 5812 5814 5816 5819 5821 5823 5825 5826 5827 5828 5829 5831 5833 5835 5836 5838 5839 5840 5841 5842 5844 5845 5846 5847 5847 5848 5849 5850 5850 5851 5852 5853 5854 5854 5855 5856 5856 5856 5857 5857 5857 5858 5858 5858 5858 5859 5859 5859 5859 5859 5859 5859 5859 5859
5797 5797 5799 5799 5800 5801 5802 5802 5803 5804 5805 5805 5806 5806 5806 5806 5806 5806 5807 5807 5807 5807 5808 5808 5808 5808 5808 5808 5808 5808 5809 5809 5811 5813 5815 5817 5819 5822 5823 5824 5825 5826 5828 5829 5831 5833 5835 5836 5837 5839 5840 5841 5842 5843 5844 5845 5846 5847 5848 5849 5849 5850 5851 5852 5852 5853 5853 5854 5855 5855 5856 5856 5856 5857 5857 5857 5857 5857 5857 5857 5857 5857 5857 5858 5858
5794 5795 5796 5797 5799 5800 5800 5801 5801 5802 5803 5804 5804 5804 5804 5804 5804 5805 5805 5805 5805 5805 5805 5806 5806 5806 5806 5806 5806 5807 5807 5807 5808 5810 5812 5813 5815 5818 5820 5821 5822 5823 5825 5827 5828 5830 5832 5833 5834 5836 5837 5839 5840 5840 5841 5842 5844 5845 5846 5846 5847 5848 5849 5849 5850 5850 5851 5852 5853 5853 5854 5854 5855 5855 5855 5856 5856 5856 5856 5856 5856 5856 5856 5856 5856
5792 5793 5793 5795 5797 5798 5799 5799 5799 5800 5801 5802 5803 5803 5802 5802 5802 5803 5804 5803 5803 5803 5803 5803 5804 5804 5805 5805 5806 5806 5806 5806 5806 5808 5810 5810 5812 5814 5816 5818 5819 5821 5823 5824 5825 5827 5828 5830 5831 5833 5834 5836 5836 5837 5838 5840 5841 5842 5843 5844 5845 5846 5846 5847 5847 5848 5849 5850 5851 5851 5852 5852 5853 5853 5853 5854 5854 5854 5854 5854 5854 5854 5855 5855 5855
5791 5791 5792 5793 5796 5797 5797 5797 5798 5798 5799 5800 5801 5801 5801 5800 5799 5800 5801 5801 5801 5801 5801 5802 5803 5804 5804 5804 5805 5804 5804 5805 5805 5806 5807 5808 5808 5811 5813 5815 5817 5819 5820 5822 5823 5824 5825 5827 5828 5830 5831 5833 5834 5834 5835 5837 5838 5839 5840 5841 5842 5843 5844 5845 5845 5846 5847 5848 5848 5849 5849 5850 5850 5851 5851 5852 5852 5852 5853 5853 5853 5853 5853 5853 5853
5790 5790 5791 5793 5794 5795 5796 5796 5796 5797 5798 5798 5799 5799 5798 5798 5797 5797 5798 5799 5799 5800 5800 5801 5802 5802 5801 5801 5802 5802 5802 5803 5803 5804 5805 5806 5806 5807 5810 5813 5815 5817 5818 5819 5821 5822 5823 5824 5825 5826 5828 5829 5830 5831 5832 5834 5835 5836 5837 5838 5839 5840 5841 5842 5843 5843 5844 5845 5846 5846 5847 5847 5848 5848 5849 5849 5850 5850 5851 5851 5851 5852 5851 5851 5852
5788 5789 5790 5791 5792 5793 5794 5794 5794 5795 5796 5796 5797 5796 5796 5796 5796 5795 5796 5797 5797 5798 5798 5799 5799 5799 5799 5799 5798 5798 5799 5800 5801 5801 5802 5803 5804 5805 5808 5810 5813 5815 5816 5817 5819 5819 5820 5821 5822 5823 5825 5826 5827 5828 5829 5830 5832 5832 5833 5834 5835 5837 5838 5839 5840 5841 5841 5842 5843 5843 5844 5845 5845 5846 5846 5847 5848 5848 5849 5849 5850 5850 5850 5850 5850
5785 5786 5787 5787 5789 5789 5790 5791 5792 5793 5793 5794 5794 5794 5793 5793 5793 5793 5794 5795 5795 5795 5796 5796 5797 5796 5796 5797 5796 5796 5797 5798 5798 5799 5799 5800 5801 5802 5804 5807 5810 5812 5813 5815 5816 5817 5817 5818 5819 5820 5821 5822 5823 5825 5826 5827 5829 5830 5830 5831 5832 5834 5835 5836 5837 5838 5839 5839 5840 5841 5841 5842 5842 5843 5844 5844 5845 5846 5846 5847 5847 5848 5848 5848 5848
5781 5783 5784 5785 5786 5787 5788 5790 5790 5791 5791 5791 5791 5791 5791 5791 5791 5791 5791 5792 5792 5792 5793 5794 5794 5794 5794 5795 5795 5795 5795 5796 5796 5797 5797 5797 5798 5799 5800 5804 5806 5808 5810 5812 5813 5814 5815 5816 5817 5818 5819 5820 5821 5822 5823 5825 5827 5827 5828 5828 5829 5830 5832 5833 5834 5835 5836 5837 5837 5838 5839 5839 5840 5840 5841 5842 5842 5843 5843 5844 5845 5845 5846 5846 5846
5779 5781 5782 5783 5784 5786 5787 5788 5789 5789 5789 5789 5789 5789 5789 5789 5789 5789 5789 5789 5790 5790 5790 5791 5792 5792 5793 5793 5793 5793 5793 5794 5795 5795 5795 5795 5795 5796 5797 5800 5802 5803 5806 5808 5809 5811 5813 5814 5815 5816 5817 5818 5819 5820 5821 5823 5824 5825 5825 5826 5827 5828 5829 5830 5831 5832 5833 5834 5834 5835 5835 5836 5836 5837 5838 5839 5839 5840 5841 5841 5842 5842 5843 5844 5844
5777 5779 5780 5781 5782 5784 5785 5786 5786 5787 5787 5787 5787 5787 5787 5787 5787 5787 5787 5788 5788 5788 5788 5789 5790 5791 5791 5791 5791 5791 5792 5792 5793 5793 5793 5793 5793 5793 5794 5796 5797 5799 5802 5804 5806 5808 5809 5811 5812 5813 5814 5815 5816 5817 5819 5820 5821 5822 5823 5824 5825 5825 5826 5827 5828 5829 5830 5831 5831 5832 5832 5833 5833 5834 5835 5835 5836 5837 5838 5838 5839 5840 5840 5841 5841
5774 5775 5776 5777 5778 5779 5781 5782 5782 5783 5784 5784 5784 5785 5784 5784 5785 5785 5786 5786 5786 5786 5786 5787 5788 5789 5789 5789 5789 5789 5789 5790 5790 5791 5791 5791 5791 5791 5791 5793 5794 5795 5798 5800 5802 5805 5806 5807 5808 5809 5811 5812 5813 5814 5816 5817 5819 5820 5821 5822 5823 5824 5825 5825 5826 5826 5827 5828 5828 5829 5829 5830 5831 5831 5832 5833 5833 5834 5835 5835 5836 5837 5837 5838 5839
5770 5771 5771 5772 5773 5774 5775 5777 5778 5779 5780 5781 5781 5782 5781 5781 5781 5782 5783 5783 5783 5784 5784 5785 5786 5786 5787 5787 5786 5786 5787 5787 5788 5789 5789 5789 5789 5789 5790 5790 5791 5792 5794 5796 5798 5801 5803 5804 5804 5806 5808 5809 5810 5811 5813 5815 5816 5817 5818 5819 5821 5822 5823 5823 5823 5824 5824 5825 5826 5826 5827 5827 5828 5829 5829 5830 5831 5831 5832 5832 5833 5834 5834 5835 5836
5767 5768 5768 5769 5770 5770 5771 5773 5774 5775 5776 5777 5778 5779 5779 5778 5778 5779 5779 5780 5781 5781 5781 5782 5783 5784 5784 5784 5784 5784 5785 5785 5786 5787 5787 5787 5787 5787 5788 5788 5789 5790 5791 5792 5793 5796 5799 5800 5801 5803 5805 5806 5807 5808 5810 5811 5812 5813 5815 5816 5818 5819 5820 5821 5821 5821 5822 5822 5822 5823 5824 5825 5825 5826 5827 5827 5828 5828 5829 5829 5830 5831 5831 5832 5833
5765 5766 5766 5767 5767 5768 5768 5769 5771 5772 5773 5775 5775 5776 5776 5776 5776 5776 5777 5777 5778 5778 5779 5779 5780 5780 5781 5781 5781 5782 5783 5783 5784 5784 5785 5785 5785 5785 5786 5786 5787 5787 5788 5789 5790 5792 5794 5796 5798 5800 5801 5802 5804 5806 5807 5807 5809 5810 5812 5813 5814 5815 5817 5818 5818 5819 5819 5819 5819 5820 5821 5822 5822 5823 5824 5824 5825 5825 5826 5826 5827 5828 5828 5829 5829
5764 5764 5764 5765 5766 5766 5767 5767 5769 5770 5771 5772 5772 5773 5773 5773 5774 5774 5774 5774 5775 5775 5776 5777 5778 5778 5777 5778 5779 5779 5780 5781 5781 5782 5782 5782 5783 5783 5783 5784 5784 5785 5785 5786 5787 5788 5790 5791 5794 5795 5797 5799 5801 5802 5803 5804 5805 5807 5809 5810 5811 5812 5813 5814 5815 5816 5816 5816 5816 5817 5817 5818 5819 5820 5820 5821 5822 5822 5823 5824 5824 5825 5825 5826 5826
5762 5763 5763 5763 5764 5765 5765 5766 5767 5768 5768 5769 5770 5770 5770 5771 5771 5772 5772 5772 5772 5773 5773 5774 5775 5775 5775 5775 5777 5777 5777 5778 5778 5779 5779 5780 5780 5780 5780 5781 5782 5782 5782 5782 5783 5784 5785 5787 5789 5791 5792 5794 5796 5799 5800 5800 5802 5804 5806 5807 5808 5809 5810 5811 5812 5812 5812 5813 5813 5813 5814 5815 5815 5816 5817 5818 5818 5819 5820 5821 5821 5822 5822 5823 5823
5761 5761 5761 5761 5762 5763 5763 5764 5765 5766 5766 5767 5768 5768 5768 5768 5769 5769 5770 5770 5770 5770 5770 5771 5771 5772 5772 5773 5774 5774 5774 5775 5776 5776 5776 5777 5777 5778 5778 5779 5779 5779 5780 5780 5780 5780 5781 5782 5784 5786 5788 5790 5792 5795 5796 5797 5798 5800 5802 5804 5805 5806 5806 5807 5808 5809 5810 5810 5810 5810 5811 5811 5812 5812 5813 5814 5815 5816 5817 5817 5818 5819 5819 5819 5820
5759 5759 5759 5760 5760 5760 5761 5761 5762 5763 5764 5765 5765 5766 5766 5766 5767 5767 5768 5768 5768 5768 5768 5768 5769 5769 5770 5770 5771 5771 5772 5772 5773 5773 5773 5774 5774 5775 5775 5776 5777 5777 5777 5777 5777 5778 5778 5779 5780 5782 5784 5786 5788 5790 5791 5793 5795 5797 5798 5799 5800 5801 5802 5803 5804 5805 5806 5807 5807 5808 5808 5808 5808 5809 5810 5811 5812 5812 5813 5814 5814 5815 5815 5816 5816
5757 5757 5757 5758 5758 5759 5759 5759 5760 5761 5761 5762 5763 5763 5764 5764 5764 5765 5765 5766 5766 5766 5766 5766 5766 5766 5767 5768 5768 5769 5769 5770 5770 5770 5771 5771 5771 5772 5773 5774 5774 5774 5774 5774 5775 5775 5776 5776 5777 5778 5780 5781 5783 5785 5786 5788 5791 5793 5793 5794 5795 5797 5798 5798 5799 5801 5801 5802 5804 5804 5804 5804 5804 5805 5806 5807 5808 5809 5810 5810 5811 5811 5811 5812 5812
5755 5755 5756 5756 5756 5757 5757 5757 5758 5758 5759 5759 5760 5760 5761 5761 5762 5762 5762 5762 5763 5763 5763 5764 5764 5764 5764 5765 5765 5766 5766 5767 5768 5768 5768 5768 5769 5770 5771 5771 5771 5771 5771 5771 5772 5772 5773 5774 5774 5775 5776 5777 5779 5780 5781 5783 5786 5788 5788 5789 5790 5792 5793 5793 5795 5796 5796 5798 5799 5799 5799 5799 5799 5801 5802 5802 5804 5805 5806 5806 5807 5807 5807 5808 5808
5753 5753 5754 5754 5754 5755 5755 5755 5755 5756 5756 5756 5757 5757 5758 5758 5759 5759 5759 5759 5759 5760 5760 5760 5761 5761 5761 5762 5762 5763 5763 5764 5765 5765 5765 5766 5766 5766 5768 5768 5768 5768 5768 5768 5768 5769 5770 5771 5772 5772 5773 5774 5775 5776 5778 5780 5782 5782 5783 5784 5785 5787 5788 5788 5789 5790 5791 5793 5794 5793 5792 5793 5794 5796 5797 5798 5799 5800 5801 5802 5802 5803 5803 5803 5803
5751 5751 5751 5752 5752 5752 5753 5753 5753 5753 5754 5754 5754 5755 5755 5755 5756 5756 5756 5757 5757 5757 5757 5757 5758 5758 5758 5759 5760 5760 5761 5761 5762 5762 5762 5763 5763 5763 5764 5765 5765 5765 5765 5765 5765 5765 5766 5768 5769 5770 5771 5772 5773 5774 5775 5776 5777 5778 5779 5780 5781 5782 5783 5783 5784 5785 5786 5788 5787 5786 5786 5787 5789 5791 5792 5794 5795 5795 5796 5797 5798 5798 5798 5799 5799
5749 5749 5749 5749 5750 5750 5750 5751 5751 5751 5751 5752 5752 5752 5752 5753 5753 5753 5754 5754 5754 5755 5755 5755 5756 5756 5756 5756 5757 5757 5758 5758 5759 5759 5760 5760 5760 5760 5761 5761 5762 5762 5762 5762 5762 5762 5764 5766 5766 5767 5768 5768 5769 5769 5771 5772 5773 5774 5775 5776 5777 5778 5778 5779 5780 5781 5782 5782 5782 5782 5783 5784 5785 5786 5787 5789 5790 5791 5792 5792 5793 5793 5793 5793 5794
5747 5747 5748 5748 5748 5748 5748 5748 5748 5749 5749 5749 5750 5750 5750 5750 5751 5751 5751 5751 5752 5752 5753 5753 5754 5754 5754 5754 5755 5755 5755 5756 5756 5757 5757 5757 5758 5758 5758 5758 5758 5758 5759 5760 5759 5759 5761 5763 5763 5764 5765 5766 5766 5767 5767 5768 5769 5769 5770 5771 5772 5773 5774 5775 5776 5776 5777 5777 5777 5778 5779 5780 5781 5781 5782 5783 5784 5786 5787 5787 5788 5788 5788 5789 5789
5746 5746 5746 5746 5746 5746 5746 5746 5746 5746 5747 5747 5747 5747 5748 5748 5748 5749 5749 5749 5750 5750 5751 5751 5752 5752 5752 5753 5753 5753 5753 5754 5754 5754 5754 5755 5755 5755 5756 5756 5755 5755 5756 5756 5756 5756 5758 5760 5761 5762 5762 5763 5764 5764 5764 5765 5766 5766 5767 5767 5768 5769 5770 5771 5771 5771 5772 5772 5772 5773 5774 5775 5776 5777 5778 5779 5779 5780 5782 5783 5783 5783 5784 5784 5784
5744 5744 5744 5744 5744 5744 5744 5744 5744 5744 5744 5745 5745 5745 5745 5745 5746 5746 5746 5747 5747 5748 5748 5749 5749 5750 5750 5751 5751 5751 5751 5751 5752 5752 5752 5753 5753 5753 5753 5753 5753 5753 5753 5754 5754 5754 5755 5756 5757 5759 5760 5760 5761 5761 5761 5762 5763 5764 5764 5765 5765 5766 5767 5767 5768 5768 5768 5768 5768 5769 5769 5771 5772 5773 5774 5774 5775 5776 5777 5778 5779 5779 5779 5779 5779
5742 5741 5741 5741 5741 5742 5742 5742 5742 5742 5743 5743 5743 5743 5743 5743 5743 5744 5744 5744 5745 5745 5746 5746 5747 5747 5748 5748 5749 5749 5749 5749 5750 5750 5750 5750 5751 5751 5751 5752 5752 5752 5752 5752 5753 5753 5752 5753 5754 5755 5757 5758 5758 5758 5759 5759 5760 5761 5761 5762 5762 5762 5763 5764 5764 5764 5764 5764 5765 5765 5766 5767 5768 5769 5770 5770 5771 5771 5772 5773 5774 5775 5775 5774 5774
5739 5739 5739 5739 5739 5739 5739 5740 5740 5740 5741 5741 5741 5741 5741 5741 5741 5742 5742 5742 5743 5743 5743 5744 5744 5745 5745 5746 5746 5747 5747 5747 5747 5747 5748 5748 5748 5749 5749 5750 5750 5750 5750 5751 5751 5751 5751 5751 5752 5753 5754 5755 5756 5757 5757 5758 5758 5758 5758 5758 5759 5759 5759 5760 5760 5760 5761 5761 5762 5762 5763 5764 5765 5765 5765 5766 5766 5767 5768 5769 5770 5770 5770 5770 5770
5737 5737 5737 5736 5737 5737 5737 5738 5738 5739 5739 5739 5739 5739 5739 5739 5739 5739 5740 5740 5740 5741 5741 5742 5742 5743 5743 5744 5744 5745 5745 5745 5745 5745 5746 5746 5746 5746 5747 5747 5748 5748 5748 5748 5749 5750 5750 5750 5750 5750 5751 5752 5753 5754 5755 5756 5757 5757 5757 5756 5756 5756 5757 5757 5757 5757 5758 5758 5759 5760 5760 5761 5761 5761 5761 5762 5762 5763 5764 5765 5766 5766 5766 5766 5766
5734 5735 5735 5735 5735 5735 5735 5736 5736 5737 5737 5737 5737 5737 5737 5736 5736 5736 5737 5737 5738 5738 5739 5739 5740 5740 5741 5741 5742 5742 5743 5743 5744 5744 5744 5744 5744 5744 5745 5745 5745 5745 5745 5746 5746 5747 5747 5747 5748 5748 5749 5749 5750 5751 5752 5753 5754 5755 5755 5754 5754 5754 5755 5755 5755 5755 5755 5755 5756 5757 5757 5758 5758 5758 5758 5759 5759 5760 5761 5761 5762 5762 5762 5762 5762
5733 5733 5733 5733 5733 5733 5733 5733 5733 5734 5734 5734 5735 5735 5735 5735 5734 5734 5734 5734 5735 5735 5736 5736 5737 5737 5738 5738 5739 5740 5740 5741 5741 5742 5742 5742 5742 5743 5743 5743 5743 5743 5743 5743 5743 5743 5744 5744 5745 5745 5745 5746 5747 5747 5748 5749 5750 5751 5751 5752 5752 5752 5752 5752 5753 5753 5753 5753 5753 5754 5754 5754 5755 5755 5755 5756 5756 5757 5757 5758 5758 5758 5759 5759 5759
5730 5731 5731 5732 5731 5730 5730 5730 5730 5731 5731 5731 5732 5732 5732 5732 5732 5732 5732 5732 5732 5733 5733 5733 5734 5735 5735 5735 5736 5736 5737 5738 5738 5739 5739 5740 5740 5740 5741 5741 5741 5741 5741 5741 5741 5741 5741 5741 5742 5742 5742 5743 5743 5744 5744 5745 5745 5747 5747 5748 5748 5748 5749 5749 5749 5749 5749 5750 5750 5750 5751 5751 5751 5751 5752 5752 5753 5753 5754 5754 5754 5755 5755 5755 5755
5727 5728 5729 5729 5729 5728 5728 5728 5728 5728 5728 5728 5729 5730 5730 5730 5730 5730 5730 5730 5730 5730 5731 5731 5731 5732 5732 5733 5733 5734 5734 5735 5735 5736 5736 5737 5737 5738 5738 5738 5738 5739 5739 5739 5739 5739 5738 5738 5738 5739 5739 5739 5739 5740 5740 5741 5742 5742 5743 5744 5744 5745 5745 5745 5746 5745 5746 5746 5746 5747 5747 5747 5747 5747 5747 5748 5748 5749 5749 5750 5750 5750 5750 5751 5751
5724 5724 5725 5726 5726 5726 5726 5726 5725 5725 5725 5725 5726 5727 5728 5729 5729 5728 5728 5728 5728 5728 5728 5729 5729 5729 5730 5730 5731 5731 5732 5732 5733 5733 5734 5734 5735 5735 5735 5735 5735 5736 5736 5736 5736 5736 5736 5735 5735 5735 5735 5736 5736 5736 5736 5737 5737 5738 5738 5739 5740 5740 5741 5741 5741 5741 5741 5742 5742 5742 5742 5742 5743 5743 5743 5743 5743 5744 5744 5745 5745 5745 5746 5746 5746
5720 5720 5721 5723 5723 5723 5723 5722 5722 5721 5722 5723 5724 5724 5725 5726 5726 5726 5725 5725 5725 5726 5726 5726 5727 5727 5727 5727 5728 5728 5728 5729 5730 5730 5731 5731 5732 5732 5732 5732 5732 5732 5733 5733 5733 5733 5733 5733 5732 5732 5731 5731 5732 5731 5732 5732 5732 5732 5733 5734 5735 5735 5735 5736 5736 5736 5737 5737 5737 5737 5738 5738 5738 5738 5738 5738 5738 5738 5739 5740 5740 5740 5740 5741 5741
5715 5716 5717 5719 5719 5720 5719 5719 5718 5718 5719 5720 5721 5722 5722 5722 5723 5723 5722 5721 5722 5723 5723 5724 5724 5724 5724 5725 5725 5725 5725 5725 5726 5727 5727 5728 5728 5729 5729 5729 5729 5729 5729 5729 5729 5729 5729 5729 5729 5729 5728 5727 5727 5727 5727 5727 5728 5728 5728 5729 5729 5729 5729 5730 5730 5730 5731 5731 5732 5732 5733 5733 5733 5733 5733 5733 5733 5733 5733 5734 5734 5735 5735 5736 5736
5711 5712 5713 5714 5715 5716 5716 5716 5715 5715 5716 5716 5717 5717 5718 5719 5719 5719 5719 5718 5719 5719 5720 5720 5720 5720 5720 5721 5721 5721 5721 5722 5722 5723 5723 5723 5724 5724 5725 5725 5725 5725 5725 5725 5725 5725 5725 5725 5725 5725 5724 5724 5723 5723 5722 5722 5722 5723 5723 5724 5724 5723 5723 5724 5724 5724 5725 5725 5726 5726 5727 5727 5728 5728 5728 5728 5728 5728 5728 5728 5729 5729 5730 5730 5731
5707 5708 5709 5710 5710 5711 5712 5712 5712 5712 5712 5712 5712 5712 5713 5714 5715 5715 5715 5715 5715 5715 5716 5716 5717 5716 5716 5717 5717 5717 5717 5717 5718 5718 5719 5719 5719 5719 5719 5720 5720 5720 5721 5721 5721 5721 5721 5721 5720 5720 5720 5720 5719 5718 5718 5717 5717 5718 5718 5718 5719 5719 5719 5719 5718 5718 5718 5719 5720 5720 5721 5721 5721 5722 5723 5723 5723 5722 5723 5723 5723 5724 5724 5725 5726
5702 5703 5704 5705 5706 5707 5708 5708 5708 5708 5707 5707 5708 5707 5707 5708 5710 5711 5711 5711 5711 5711 5712 5712 5712 5712 5712 5713 5713 5713 5713 5713 5713 5714 5714 5714 5714 5714 5714 5714 5714 5715 5715 5715 5715 5716 5716 5716 5715 5715 5715 5715 5714 5713 5713 5713 5712 5712 5712 5712 5713 5713 5714 5714 5714 5712 5712 5713 5714 5714 5714 5714 5715 5715 5716 5716 5717 5717 5717 5717 5718 5718 5719 5719 5720
5697 5698 5699 5700 5701 5702 5703 5704 5704 5703 5703 5703 5703 5702 5702 5703 5704 5706 5706 5707 5707 5707 5708 5708 5708 5708 5708 5708 5708 5708 5708 5707 5708 5708 5708 5708 5708 5708 5708 5708 5708 5708 5709 5709 5709 5709 5710 5710 5710 5709 5709 5709 5708 5708 5707 5707 5707 5707 5706 5706 5707 5707 5707 5708 5708 5708 5706 5706 5707 5709 5709 5708 5708 5709 5709 5710 5710 5711 5711 5712 5712 5712 5713 5714 5715
5691 5692 5693 5694 5695 5696 5697 5698 5699 5699 5698 5698 5697 5697 5698 5698 5699 5700 5701 5701 5701 5702 5703 5703 5703 5703 5703 5703 5703 5703 5702 5702 5703 5703 5703 5702 5702 5702 5702 5702 5702 5702 5702 5702 5702 5703 5703 5703 5703 5702 5702 5702 5702 5701 5700 5700 5700 5700 5700 5700 5700 5700 5701 5701 5702 5702 5700 5699 5700 5702 5704 5703 5701 5702 5703 5703 5703 5704 5705 5705 5706 5706 5707 5708 5708
5684 5685 5686 5687 5688 5689 5691 5692 5693 5693 5693 5693 5692 5692 5692 5693 5693 5694 5695 5695 5695 5695 5696 5697 5698 5698 5698 5698 5697 5697 5697 5697 5697 5697 5697 5696 5695 5695 5696 5696 5696 5696 5695 5695 5695 5695 5695 5695 5696 5695 5694 5694 5695 5694 5693 5693 5693 5693 5693 5693 5692 5693 5694 5694 5694 5695 5694 5693 5693 5695 5698 5698 5695 5696 5698 5697 5697 5697 5698 5699 5699 5700 5700 5701 5702
5676 5677 5679 5680 5681 5683 5684 5685 5686 5686 5687 5686 5686 5686 5687 5688 5688 5688 5688 5688 5688 5689 5689 5690 5691 5691 5691 5691 5691 5691 5691 5691 5691 5691 5690 5689 5689 5689 5688 5689 5689 5688 5688 5687 5687 5687 5687 5687 5687 5687 5686 5685 5685 5685 5684 5684 5685 5685 5685 5685 5685 5685 5685 5686 5686 5686 5686 5685 5685 5686 5691 5692 5689 5689 5691 5690 5690 5691 5692 5692 5693 5693 5693 5694 5695
5669 5670 5671 5672 5674 5676 5677 5679 5679 5679 5679 5679 5679 5680 5680 5681 5682 5682 5681 5681 5682 5683 5682 5682 5683 5684 5684 5684 5684 5684 5684 5684 5684 5684 5684 5683 5683 5683 5682 5682 5681 5681 5680 5679 5678 5678 5678 5678 5678 5678 5677 5676 5675 5675 5675 5675 5675 5675 5675 5676 5677 5676 5676 5677 5677 5678 5677 5677 5677 5678 5682 5684 5682 5682 5684 5683 5682 5684 5684 5685 5686 5686 5686 5687 5688
5663 5664 5664 5665 5666 5668 5669 5671 5672 5671 5671 5672 5672 5673 5673 5674 5674 5674 5674 5674 5675 5675 5675 5674 5674 5675 5676 5676 5677 5677 5676 5676 5677 5676 5676 5676 5675 5675 5675 5674 5674 5673 5672 5671 5670 5670 5670 5669 5669 5668 5668 5667 5666 5666 5665 5665 5665 5665 5665 5667 5667 5666 5667 5669 5669 5668 5667 5667 5668 5669 5672 5675 5674 5674 5676 5676 5676 5677 5677 5678 5678 5678 5679 5680 5680
5656 5657 5658 5659 5660 5661 5662 5663 5663 5663 5662 5663 5664 5665 5666 5667 5667 5667 5667 5667 5667 5667 5667 5666 5666 5666 5666 5667 5668 5668 5667 5667 5667 5667 5667 5666 5665 5665 5665 5665 5665 5665 5664 5663 5662 5662 5661 5660 5660 5659 5659 5658 5658 5657 5657 5656 5655 5655 5656 5657 5656 5656 5657 5659 5660 5659 5658 5658 5658 5658 5661 5665 5664 5665 5668 5669 5669 5670 5670 5669 5669 5669 5671 5671 5672
5650 5651 5652 5653 5654 5655 5655 5656 5656 5655 5655 5656 5656 5657 5657 5658 5658 5659 5659 5659 5659 5659 5659 5660 5659 5658 5658 5659 5659 5658 5658 5658 5658 5657 5657 5656 5656 5656 5656 5655 5655 5655 5654 5653 5654 5653 5652 5652 5651 5650 5650 5649 5649 5649 5648 5647 5647 5646 5646 5647 5647 5646 5647 5649 5649 5650 5650 5650 5649 5648 5650 5654 5654 5655 5658 5660 5661 5662 5661 5661 5661 5661 5662 5663 5663
5643 5644 5645 5647 5648 5648 5648 5648 5649 5648 5648 5649 5649 5649 5649 5650 5650 5650 5650 5651 5652 5651 5651 5651 5651 5651 5651 5651 5651 5650 5650 5650 5649 5649 5648 5648 5647 5647 5647 5646 5646 5646 5645 5644 5644 5644 5644 5643 5643 5642 5641 5641 5640 5640 5639 5639 5638 5637 5637 5638 5638 5637 5638 5639 5639 5639 5641 5642 5640 5638 5640 5643 5644 5645 5647 5649 5652 5653 5652 5651 5652 5653 5653 5653 5654